Tracking 33744 objects as of 14-Apr-2026
HD Live streaming from Space Station
objects crossing your sky now

STARLINK-36750

Track STARLINK-36750 now!
10-day predictions
STARLINK-36750 is classified as:


NORAD ID: 67695
Int'l Code: 2026-025C
Perigee: 472.3 km
Apogee: 473.0 km
Inclination: 97.3 °
Period: 93.9 minutes
Semi major axis: 6843 km
RCS: Unknown
Launch date: February 7, 2026
Source: United States (US)
Launch site: AIR FORCE WESTERN TEST RANGE (AFWTR)
Your satellite tracking list
Your tracking list is empty




NASA's NSSDC Master Catalog

Two Line Element Set (TLE):
1 67695U 26025C   26103.74606860  .00017462  00000-0  54170-3 0  9997
2 67695  97.2891 215.9184 0000470 134.5846 225.5435 15.33460806 11388
Source of the keplerian elements: AFSPC